Buffalo, NY

8:46 AM EST on December 06, 2019 (GMT -0500)
Buffalo Niagara International

Weather History for KBUF - November, 2019

Change the Weather History Date:

Saturday, November 16, 2019

  Actual Average Record
Temperature  
Mean Temperature 24 °F 41 °F  
Max Temperature 29 °F 48 °F 69 °F (1955)
Min Temperature 19 °F 34 °F 9 °F (1967)
Degree Days  
Heating Degree Days 41 24  
Month to date heating degree days 499 349  
Since 1 July heating degree days 933 954  
Cooling Degree Days 0 0  
Month to date cooling degree days 0 0  
Year to date cooling degree days 604 544  
Moisture  
Dew Point 14 °F    
Average Humidity 66    
Maximum Humidity 81    
Minimum Humidity 50    
Precipitation  
Precipitation 0.00 in 0.14 in 2.10 in (1949)
Month to date precipitation 1.67 2.12  
Year to date precipitation 42.15 34.70  
Snow  
Snow 0.00 in 0.20 in 16.10 in (1949)
Month to date snowfall 12.6 2.8  
Since 1 July snowfall 12.6 3.7  
Since 1 September snowfall 12.6 3.7  
Snow Depth 4.00 in    
Sea Level Pressure  
Sea Level Pressure 30.51 in    
Wind  
Wind Speed 10 mph (ENE)    
Max Wind Speed 18 mph    
Max Gust Speed 23 mph    
Visibility 10 miles    
Events      
T = Trace of Precipitation, MM = Missing Value Source: NWS Daily Summary

Daily Weather History Graph

Daily Weather History Graph

Search for Another Location

Airport or City:

Astronomy

Nov. 16, 2019 Rise Set
Actual Time 7:08 AM EST 4:50 PM EST
Civil Twilight 6:37 AM EST 5:21 PM EST
Nautical Twilight 6:03 AM EST 5:55 PM EST
Astronomical Twilight 5:29 AM EST 6:29 PM EST
Moon 8:19 PM EST (11/16) 11:03 AM EST (11/16)
Length of Visible Light 10h 43m
Length of Day
9h 42m
Waning Gibbous, 82% of the Moon is Illuminated
Nov 16
Waning Gibbous
Nov 19
Last Quarter
Nov 26
New
Dec 4
First Quarter
Dec 12
Full

Hourly Weather History & Observations

Time (EST) Temp. Windchill Dew Point Humidity Pressure Visibility Wind Dir Wind Speed Gust Speed Precip Events Conditions
12:54 AM 27.0 °F 17.3 °F 12.9 °F 56% 30.45 in 10.0 mi NNE 10.4 mph - N/A   Partly Cloudy
1:54 AM 25.0 °F 16.3 °F 10.9 °F 55% 30.47 in 10.0 mi NNE 8.1 mph - N/A   Clear
2:54 AM 23.0 °F 13.9 °F 12.0 °F 63% 30.48 in 10.0 mi NNE 8.1 mph - N/A   Clear
3:54 AM 21.9 °F 11.7 °F 12.0 °F 66% 30.48 in 10.0 mi NE 9.2 mph - N/A   Clear
4:54 AM 21.0 °F 11.4 °F 12.9 °F 71% 30.50 in 10.0 mi NE 8.1 mph - N/A   Clear
5:54 AM 19.9 °F 10.1 °F 12.9 °F 74% 30.51 in 10.0 mi NE 8.1 mph - N/A   Clear
6:54 AM 19.9 °F 10.1 °F 12.9 °F 74% 30.54 in 10.0 mi NE 8.1 mph - N/A   Partly Cloudy
7:54 AM 19.9 °F 11.1 °F 14.0 °F 78% 30.56 in 10.0 mi NE 6.9 mph - N/A   Partly Cloudy
8:54 AM 23.0 °F 12.4 °F 17.1 °F 78% 30.58 in 10.0 mi ENE 10.4 mph - N/A   Mostly Cloudy
9:54 AM 26.1 °F 13.6 °F 17.1 °F 69% 30.59 in 10.0 mi East 16.1 mph 21.9 mph N/A   Mostly Cloudy
10:15 AM 26.1 °F 14.5 °F 16.0 °F 66% 30.55 in 10.0 mi East 13.8 mph - N/A   Scattered Clouds
10:54 AM 27.0 °F 16.1 °F 16.0 °F 63% 30.59 in 10.0 mi ENE 12.7 mph - N/A   Partly Cloudy
11:54 AM 28.0 °F 18.1 °F 12.9 °F 53% 30.56 in 10.0 mi East 11.5 mph - N/A   Partly Cloudy
12:54 PM 28.9 °F 19.8 °F 14.0 °F 54% 30.53 in 10.0 mi East 10.4 mph - N/A   Partly Cloudy
1:54 PM 28.9 °F 19.2 °F 15.1 °F 56% 30.51 in 10.0 mi ENE 11.5 mph - N/A   Partly Cloudy
2:54 PM 28.9 °F 17.7 °F 12.9 °F 51% 30.50 in 10.0 mi ENE 15.0 mph - N/A   Scattered Clouds
3:54 PM 28.9 °F 17.7 °F 12.9 °F 51% 30.49 in 10.0 mi ENE 15.0 mph - N/A   Scattered Clouds
4:54 PM 27.0 °F 15.6 °F 15.1 °F 61% 30.50 in 10.0 mi NE 13.8 mph - N/A   Scattered Clouds
5:54 PM 26.1 °F 16.2 °F 16.0 °F 66% 30.51 in 10.0 mi ENE 10.4 mph - N/A   Mostly Cloudy
6:54 PM 25.0 °F 14.2 °F 16.0 °F 69% 30.50 in 10.0 mi ENE 11.5 mph - N/A   Scattered Clouds
7:54 PM 25.0 °F 16.3 °F 14.0 °F 63% 30.50 in 10.0 mi East 8.1 mph - N/A   Scattered Clouds
8:54 PM 24.1 °F 15.2 °F 12.0 °F 60% 30.48 in 10.0 mi East 8.1 mph - N/A   Mostly Cloudy
9:54 PM 24.1 °F 13.7 °F 10.9 °F 57% 30.46 in 10.0 mi East 10.4 mph - N/A   Scattered Clouds
10:54 PM 24.1 °F 14.4 °F 10.0 °F 55% 30.43 in 10.0 mi East 9.2 mph - N/A   Mostly Cloudy
11:54 PM 24.1 °F 16.0 °F 10.0 °F 55% 30.40 in 10.0 mi East 6.9 mph - N/A   Mostly Cloudy